Location: Prairie State College
(41.5244°N, 87.6382°W)
Time: 09:43:35
(UTC-05:00)

ARGOS Delta rocket - Pass Details

Date: 25 June 2018
Orbit: 636 x 837 km, 96.5° (Epoch: 24 September)

Event Time Altitude Azimuth Distance (km) Brightness Sun altitude
Rises 04:01:09 0° 112° (ESE) 3,343 7.6 -11.9°
Reaches altitude 10° 04:05:13 10° 82° (E) 2,381 7.4 -11.3°
Maximum altitude 04:06:59 12° 62° (ENE) 2,247 7.7 -11.1°
Drops below altitude 10° 04:08:44 10° 42° (NE) 2,349 8.1 -10.9°
Sets 04:12:39 0° 12° (NNE) 3,233 8.3 -10.4°
